Torna al catalogo

GLOBALSTAR M079

AttivoComunicazioniLEO
NORAD 37188·PAYLOAD·🇺🇸 United States

Lanciato Oct 19, 2010 da Baikonur Cosmodrome

Loading…

Prossimi Passaggi (prossime 24 ore)

TLE

AggiornatoSource: Space-Track

Epoca: Sep 14, 2026, 13:25 UTC

1 37188U 10054A   26257.55938463 -.00000089  00000-0  83772-4 0  9991
2 37188  52.0030 196.6076 0000371  93.6960  78.0152 12.62267396733839

Traccia GLOBALSTAR M079 in tempo reale con AllMySat

Download on the App Store